Location: Mauna Kea VIS
(19.7591°N, 155.4561°W)
Time: 09:11:46
(UTC-10:00)

Daily predictions for brighter satellites

Satellite Brightness Start Highest point End
(mag) Time Altitude Azimuth Time Altitude Azimuth Time Altitude Azimuth
Cosmos 2084 3.3 18:42:25 10° NNW 18:46:29 75° ENE 18:50:50 10° SSE
Centaur AC-119 1.8 18:44:25 10° WNW 18:46:30 61° NNE 18:51:23 10° ESE
Okean 2 Rocket 3.3 18:42:09 10° S 18:46:38 82° W 18:51:06 10° N
H-2A R/B (2) 1.5 18:41:43 10° WSW 18:46:55 66° NNW 18:49:33 10° ENE
Cosmos 1346 Rocket 2.8 18:45:01 10° N 18:48:50 54° E 18:52:38 10° SSE
Cosmos 724 4.4 18:46:35 10° NNW 18:52:41 89° WSW 18:58:35 10° SSE
BREEZE-M DEB (TANK) 4.0 18:42:48 10° SW 18:53:13 69° NW 18:56:38 10° NNE
ALOS 3.5 18:51:25 10° ESE 18:54:45 20° ENE 18:58:07 10° NNE
Cosmos 1954 Rocket 4.5 18:53:33 10° SSE 18:58:17 38° E 19:03:02 10° NE
Meteor 1-25 Rocket 4.3 18:53:48 10° S 18:59:21 85° W 19:04:57 10° N
Cosmos 1709 Rocket 4.3 18:53:52 10° SSE 18:59:48 45° E 19:05:40 10° NNE
Cosmos 2322 Rocket 3.5 18:58:56 10° NNE 19:02:44 18° ENE 19:06:30 10° ESE
Cosmos 2151 Rocket 3.5 19:00:13 10° S 19:04:37 66° E 19:09:04 10° NNE
Meteor 1-11 Rocket 4.4 19:00:58 10° SSE 19:05:51 31° E 19:10:49 10° NNE
GPS 2-05 Rocket1 3.7 19:07:06 10° WNW 19:10:37 51° SW 19:14:06 10° SE
Cosmos 1812 2.8 19:11:16 10° N 19:15:00 51° E 19:18:44 10° SSE
Cosmos 1818 4.1 19:12:12 10° SW 19:17:32 62° WNW 19:22:55 10° NNE
Okean 1 Rocket 3.9 19:15:34 10° SSE 19:19:25 29° E 19:23:17 10° NNE
FENGYUN 3A 4.0 19:15:24 10° SE 19:20:25 41° ENE 19:25:27 10° N
Cosmos 1602 3.8 19:21:31 10° S 19:25:14 51° E 19:28:58 10° NNE
ISS -0.5 19:22:53 10° WNW 19:25:16 19° SW 19:27:38 10° S
SJ-6B 2.9 19:25:29 10° S 19:29:35 86° WSW 19:33:38 10° NNW
Abrixas rocket 3.9 19:27:21 10° S 19:29:23 20° SE 19:29:23 20° SE
Cosmos 44 Rocket 3.5 19:27:48 10° N 19:32:16 43° ENE 19:34:19 27° ESE
Cosmos 1741 Rocket 4.5 19:29:24 10° SSE 19:34:10 37° E 19:36:00 28° ENE
CENTAUR R/B 3.1 19:27:22 10° NNW 19:35:35 71° ENE 19:43:53 10° SSE
Cosmos 2219 3.8 19:30:58 10° SSE 19:36:04 34° ESE 19:37:29 30° ENE
GOES 2 Rocket 3.9 19:34:37 10° NW 19:38:43 33° N 19:39:37 29° NE
GPS 2-04 Rocket1 2.8 19:40:15 10° WSW 19:44:34 81° NNW 19:45:44 47° NE
ERBS 4.2 19:44:25 10° NNW 19:45:48 20° N 19:45:48 20° N
Cosmos 1536 3.3 19:47:53 10° S 19:50:48 44° SSE 19:50:48 44° SSE
Resurs 01 Rocket 1.4 19:48:32 10° SSE 19:52:56 80° ENE 19:57:20 10° N
SL-19 R/B 4.1 19:47:27 10° SSE 19:52:57 74° ENE 19:58:36 10° N
Cosmos 1980 Rocket 3.9 19:52:29 10° NW 19:57:31 33° WSW 20:02:33 10° SSW
FengYun 1-2 T 4.3 19:54:46 10° S 20:00:14 75° WSW 20:05:42 10° NNW
Gbstr 26 Del rocket 4.4 19:57:08 10° WSW 20:00:33 27° NW 20:01:50 22° NNW
Hubble Space Telescope 2.1 20:00:31 10° SW 20:03:13 30° S 20:03:13 30° S
Cosmos 44 4.3 20:00:08 10° NNW 20:02:21 29° N 20:02:21 29° N
GPS 2-18 Rocket1 4.1 20:00:30 10° WSW 20:03:38 41° SSW 20:03:38 41° SSW
Atlas Centaur 2 4.3 20:02:19 10° S 20:04:15 13° SSE 20:04:15 13° SSE
Cosmos 1536 Rocket 4.1 20:03:39 10° NNW 20:08:01 57° W 20:12:23 10° S
H-2A ROCKET BODY 2.4 19:55:41 10° WNW 20:08:04 57° SW 20:09:06 45° SSE
Meteor 1-19 Rocket 4.3 20:11:11 10° N 20:25:00 - S 20:16:00 63° NNE
GPS 2-12 Rocket1 3.8 20:12:36 10° W 20:16:15 47° SW 20:16:15 47° SW
FUSE 3.9 20:13:29 10° WSW 20:18:31 78° WSW 20:18:31 78° WSW
Helios 1B rocket 4.1 20:16:54 13° NNW 20:20:09 33° WNW 20:23:52 10° SW
Spot 2 Rocket 4.2 20:16:33 10° S 20:21:26 52° WSW 20:26:20 10° NNW
Resurs 1-3 4.4 20:21:56 47° SW 20:22:27 49° W 20:26:41 10° NNW
Meteosat 1 Rocket2 4.0 20:18:53 10° W 20:21:45 43° WSW 20:21:45 43° WSW
H-II Stage 2 4.2 20:20:30 10° WSW 20:21:16 15° WSW 20:21:16 15° WSW
Meteor 1-5 Rocket 4.2 20:17:43 10° S 20:23:38 90° WNW 20:23:49 85° N
Cosmos 2327 Rocket 4.4 20:17:50 10° S 20:23:58 86° W 20:30:12 10° N
SL-16 R/B 2.5 20:21:16 10° NNW 20:26:50 62° WSW 20:28:43 40° SSW
Meteor 1-13 Rocket 4.4 20:22:16 10° NNW 20:27:46 68° W 20:33:23 10° S
Cosmos 2181 Rocket 4.5 20:24:57 10° NNW 20:31:04 58° W 20:37:17 10° S
Cosmos 2322 Rocket 3.5 20:41:38 10° NW 20:46:42 36° WSW 20:48:36 28° SW
ATLAS 3B CENTAUR R/B 4.3 21:20:11 10° WSW 21:39:40 63° SW 21:39:40 63° SW
